Randolph AFB, TX

7:03 AM CDT on August 18, 2017 (GMT -0500)
Randolph Air Force Base

Weather History for KRND - December, 2015

Change the Weather History Date:

Thursday, December 24, 2015

  Actual Average Record
Temperature  
Mean Temperature 60 °F -  
Max Temperature 73 °F 59 °F 75 °F (2008)
Min Temperature 48 °F 39 °F 28 °F (2007)
Degree Days  
Heating Degree Days 4    
Growing Degree Days 10 (Base 50)    
Moisture  
Dew Point 57 °F    
Average Humidity 93    
Maximum Humidity 100    
Minimum Humidity 65    
Precipitation  
Precipitation 0.00 in - - ()
Sea Level Pressure  
Sea Level Pressure 29.84 in    
Wind  
Wind Speed 6 mph (NNW)    
Max Wind Speed 10 mph    
Max Gust Speed -    
Visibility 6 miles    
Events Fog    
Averages and records for this station are not official NWS values.
T = Trace of Precipitation, MM = Missing Value Source: NWS Daily Summary

Daily Weather History Graph

Daily Weather History Graph

Search for Another Location

Airport or City:

Trip Planner

Search our weather history database for the weather conditions in past years. The results will help you decide how hot, cold, wet, or windy it might be!

Date:

Astronomy

Dec. 24, 2015 Rise Set
Actual Time 7:25 AM CST 5:40 PM CST
Civil Twilight 6:58 AM CST 6:06 PM CST
Nautical Twilight 6:29 AM CST 6:36 PM CST
Astronomical Twilight 5:59 AM CST 7:05 PM CST
Moon 5:22 PM CST (12/24) 6:22 AM CST (12/24)
Length of Visible Light 11h 07m
Length of Day
10h 15m
Waxing Gibbous, 99% of the Moon is Illuminated
Dec 24
Waxing Gibbous
Dec 25
Full
Jan 1
Last Quarter
Jan 9
New
Jan 16
First Quarter

Hourly Weather History & Observations

Time (CST) Temp. Dew Point Humidity Pressure Visibility Wind Dir Wind Speed Gust Speed Precip Events Conditions
12:58 AM 51.6 °F 47.3 °F 85% 29.73 in 10.0 mi NNW 5.8 mph - N/A   Clear
1:58 AM 50.5 °F 47.5 °F 89% 29.73 in 10.0 mi NW 6.9 mph - N/A   Clear
2:58 AM 49.8 °F 47.5 °F 92% 29.73 in 10.0 mi NW 10.4 mph - N/A   Clear
3:58 AM 50.0 °F 47.8 °F 92% 29.73 in 10.0 mi NNW 8.1 mph - N/A   Clear
4:58 AM 49.8 °F 47.3 °F 91% 29.74 in 10.0 mi NNW 9.2 mph - N/A   Clear
5:58 AM 49.8 °F 47.7 °F 92% 29.75 in 10.0 mi NW 8.1 mph - N/A   Clear
6:03 AM 50.0 °F 48.2 °F 94% 29.76 in 6.0 mi NNW 8.1 mph - N/A   Clear
6:13 AM 50.0 °F 48.2 °F 94% 29.76 in 8.0 mi NNW 9.2 mph - N/A   Clear
6:33 AM 48.2 °F 46.4 °F 93% 29.77 in 10.0 mi NNW 6.9 mph - N/A   Clear
6:48 AM 48.2 °F 46.4 °F 93% 29.77 in 10.0 mi NNW 8.1 mph - N/A   Clear
6:58 AM 48.4 °F 47.1 °F 95% 29.77 in 10.0 mi NW 8.1 mph - N/A   Clear
7:42 AM 48.2 °F 46.4 °F 93% 29.79 in 10.0 mi East 6.9 mph - N/A   Partly Cloudy
7:47 AM 48.2 °F 48.2 °F 100% 29.80 in 4.0 mi East 5.8 mph - N/A   Scattered Clouds
7:52 AM 48.2 °F 48.2 °F 100% 29.80 in 1.2 mi ESE 6.9 mph - N/A   Mostly Cloudy
7:57 AM 50.0 °F 50.0 °F 100% 29.81 in 1.0 mi SE 4.6 mph - N/A   Mostly Cloudy
7:58 AM 49.3 °F 48.7 °F 98% 29.81 in 1.0 mi SE 4.6 mph - N/A   Mostly Cloudy
8:03 AM 51.8 °F 51.8 °F 100% 29.82 in 0.8 mi ESE 4.6 mph - N/A   Mist
8:08 AM 53.6 °F 53.6 °F 100% 29.82 in 0.2 mi ESE 3.5 mph - N/A Fog Fog
8:13 AM 53.6 °F 53.6 °F 100% 29.82 in 0.2 mi East 3.5 mph - N/A Fog Fog
8:18 AM 53.6 °F 53.6 °F 100% 29.83 in 0.2 mi ENE 3.5 mph - N/A Fog Fog
8:28 AM 53.6 °F 53.6 °F 100% 29.84 in 0.2 mi ENE 3.5 mph - N/A Fog Fog
8:58 AM 54.0 °F 54.0 °F 100% 29.85 in 0.2 mi NNW 5.8 mph - N/A Fog Fog
9:03 AM 53.6 °F 53.6 °F 100% 29.86 in 0.2 mi NNW 6.9 mph - N/A Fog Fog
9:08 AM 53.6 °F 53.6 °F 100% 29.86 in 0.5 mi NNW 6.9 mph - N/A Fog Fog
9:18 AM 55.4 °F 55.4 °F 100% 29.86 in 0.5 mi NNW 8.1 mph - N/A Fog Fog
9:23 AM 55.4 °F 55.4 °F 100% 29.86 in 0.5 mi NNW 6.9 mph - N/A Fog Fog
9:28 AM 55.4 °F 55.4 °F 100% 29.86 in 0.8 mi NNW 6.9 mph - N/A   Mist
9:33 AM 55.4 °F 55.4 °F 100% 29.86 in 0.8 mi NNW 6.9 mph - N/A   Mist
9:38 AM 57.2 °F 57.2 °F 100% 29.86 in 1.2 mi NNW 6.9 mph - N/A   Overcast
9:43 AM 57.2 °F 57.2 °F 100% 29.86 in 1.5 mi NNW 5.8 mph - N/A   Overcast
9:48 AM 57.2 °F 57.2 °F 100% 29.87 in 2.0 mi NNW 5.8 mph - N/A   Overcast
9:53 AM 57.2 °F 57.2 °F 100% 29.87 in 2.5 mi NNW 5.8 mph - N/A   Overcast
9:58 AM 56.5 °F 56.5 °F 100% 29.87 in 3.0 mi NNW 5.8 mph - N/A   Overcast
10:08 AM 57.2 °F 57.2 °F 100% 29.87 in 4.0 mi NNW 4.6 mph - N/A   Overcast
10:18 AM 57.2 °F 57.2 °F 100% 29.87 in 5.0 mi NNW 4.6 mph - N/A   Overcast
10:58 AM 61.0 °F 61.0 °F 100% 29.86 in 10.0 mi North 4.6 mph - N/A   Overcast
11:28 AM 66.2 °F 64.4 °F 94% 29.85 in 10.0 mi NNE 3.5 mph - N/A   Overcast
11:58 AM 68.5 °F 64.4 °F 87% 29.83 in 8.0 mi NNE 3.5 mph - N/A   Mostly Cloudy
12:08 PM 69.8 °F 64.4 °F 83% 29.83 in 4.0 mi Calm Calm - N/A   Haze
12:13 PM 69.8 °F 64.4 °F 83% 29.83 in 2.5 mi Calm Calm - N/A   Haze
12:18 PM 69.8 °F 66.2 °F 88% 29.83 in 2.0 mi Calm Calm - N/A   Haze
12:23 PM 69.8 °F 66.2 °F 88% 29.82 in 4.0 mi Calm Calm - N/A   Haze
12:28 PM 69.8 °F 66.2 °F 88% 29.82 in 9.0 mi SE 3.5 mph - N/A   Mostly Cloudy
12:53 PM 71.6 °F 66.2 °F 83% 29.81 in 10.0 mi SE 6.9 mph - N/A   Mostly Cloudy
12:58 PM 71.2 °F 65.5 °F 82% 29.80 in 10.0 mi SE 5.8 mph - N/A   Mostly Cloudy
1:03 PM 71.6 °F 66.2 °F 83% 29.81 in 10.0 mi SE 4.6 mph - N/A   Mostly Cloudy
1:28 PM 71.6 °F 66.2 °F 83% 29.81 in 10.0 mi South 6.9 mph - N/A   Overcast
1:58 PM 72.0 °F 65.1 °F 79% 29.79 in 10.0 mi South 3.5 mph - N/A   Mostly Cloudy
2:03 PM 71.6 °F 66.2 °F 83% 29.80 in 10.0 mi South 4.6 mph - N/A   Mostly Cloudy
2:13 PM 71.6 °F 64.4 °F 78% 29.80 in 10.0 mi SSW 3.5 mph - N/A   Overcast
2:23 PM 71.6 °F 64.4 °F 78% 29.80 in 10.0 mi SW 4.6 mph - N/A   Overcast
2:33 PM 71.6 °F 64.4 °F 78% 29.80 in 9.0 mi South 3.5 mph - N/A   Overcast
2:58 PM 72.3 °F 64.4 °F 76% 29.78 in 10.0 mi SE 3.5 mph - N/A   Overcast
3:28 PM 73.4 °F 60.8 °F 65% 29.80 in 10.0 mi SW 3.5 mph - N/A   Scattered Clouds
3:33 PM 73.4 °F 60.8 °F 65% 29.80 in 10.0 mi Calm Calm - N/A   Mostly Cloudy
3:58 PM 72.9 °F 62.2 °F 69% 29.79 in 10.0 mi Calm Calm - N/A   Overcast
4:33 PM 71.6 °F 60.8 °F 69% 29.81 in 10.0 mi NW 3.5 mph - N/A   Scattered Clouds
4:58 PM 72.0 °F 61.2 °F 69% 29.81 in 10.0 mi NW 3.5 mph - N/A   Clear
5:58 PM 68.5 °F 61.5 °F 78% 29.83 in 10.0 mi NNE 3.5 mph - N/A   Clear
6:58 PM 62.6 °F 61.7 °F 97% 29.86 in 10.0 mi NNW 3.5 mph - N/A   Clear
7:08 PM 62.6 °F 62.6 °F 100% 29.86 in 9.0 mi NW 5.8 mph - N/A   Clear
7:28 PM 60.8 °F 60.8 °F 100% 29.87 in 7.0 mi NW 9.2 mph - N/A   Clear
7:38 PM 60.8 °F 60.8 °F 100% 29.87 in 7.0 mi NW 8.1 mph - N/A   Clear
7:58 PM 62.1 °F 62.1 °F 100% 29.89 in 8.0 mi NW 9.2 mph - N/A   Clear
8:53 PM 60.8 °F 60.8 °F 100% 29.90 in 5.0 mi North 5.8 mph - N/A   Clear
8:58 PM 59.0 °F 59.0 °F 100% 29.90 in 4.0 mi North 4.6 mph - N/A   Clear
9:03 PM 59.0 °F 59.0 °F 100% 29.90 in 6.0 mi NNW 4.6 mph - N/A   Clear
9:08 PM 59.0 °F 59.0 °F 100% 29.90 in 8.0 mi NNW 4.6 mph - N/A   Clear
9:18 PM 59.0 °F 59.0 °F 100% 29.91 in 6.0 mi NNW 5.8 mph - N/A   Clear
9:38 PM 59.0 °F 59.0 °F 100% 29.91 in 7.0 mi NNW 8.1 mph - N/A   Clear
9:58 PM 58.5 °F 58.5 °F 100% 29.91 in 7.0 mi NNW 6.9 mph - N/A   Clear
10:28 PM 57.2 °F 57.2 °F 100% 29.93 in 3.0 mi NNW 5.8 mph - N/A   Clear
10:33 PM 57.2 °F 57.2 °F 100% 29.93 in 2.5 mi NNW 6.9 mph - N/A   Clear
10:38 PM 57.2 °F 57.2 °F 100% 29.94 in 3.0 mi North 5.8 mph - N/A   Clear
10:43 PM 57.2 °F 57.2 °F 100% 29.93 in 5.0 mi North 5.8 mph - N/A   Clear
10:48 PM 57.2 °F 57.2 °F 100% 29.94 in 5.0 mi North 5.8 mph - N/A   Clear
10:58 PM 57.2 °F 57.2 °F 100% 29.94 in 5.0 mi NNW 5.8 mph - N/A   Clear
11:33 PM 57.2 °F 57.2 °F 100% 29.94 in 4.0 mi NNW 5.8 mph - N/A   Scattered Clouds
11:38 PM 57.2 °F 57.2 °F 100% 29.94 in 3.0 mi NNW 5.8 mph - N/A   Mostly Cloudy
11:48 PM 59.0 °F 59.0 °F 100% 29.94 in 4.0 mi NNW 6.9 mph - N/A   Mostly Cloudy
11:53 PM 59.0 °F 59.0 °F 100% 29.94 in 5.0 mi NW 8.1 mph - N/A   Overcast
11:58 PM 58.6 °F 58.6 °F 100% 29.93 in 6.0 mi NW 8.1 mph - N/A   Overcast